#timestamp,LO_Frequency,Hit,StdDev 
1564077615.1,286046998.6,N
1564077635.9,286046998.6,N
1564077655.7,286046998.5,N
1564077675.5,286046999.1,N
1564077695.4,286046997.0,N
1564077715.2,286046999.1,N
1564077735.0,286046998.3,N
1564077735.9,286046998.3,N
1564077755.8,286046999.6,N
1564077775.6,286046998.5,N
1564077795.5,286046998.1,N
1564077815.3,286046999.9,N
1564077835.1,286046998.2,N
1564077855.9,286047001.1,N
1564077875.7,286046998.1,N
1564077895.6,286046998.5,N
1564077915.4,286046998.6,N
1564077935.2,286046999.5,N
1564077955.1,286047000.9,N
1564077956.0,286047000.9,N
1564077975.8,286047000.3,N
1564077995.6,286047000.8,N
1564078015.5,286047000.1,N
1564078035.3,286046998.4,N
1564078055.2,286046999.2,N
1564078075.9,286046996.9,N
1564078095.7,286046999.0,N
1564078115.6,286047000.0,N
1564078135.4,286046999.6,N
1564078155.3,286046997.1,N
1564078175.1,286046997.2,N
1564078176.0,286046997.2,N
1564078195.8,286046997.9,N
1564078215.7,286046997.2,N
1564078235.5,286046997.2,N
1564078255.3,286046999.5,N
1564078275.2,286046999.5,N
1564078295.0,286046998.8,N
1564078295.9,286046998.8,N
1564078315.8,286046998.5,N
1564078335.6,286046999.5,N
1564078355.4,286046996.9,N
1564078375.3,286046997.0,N
1564078395.1,286047001.2,N
1564078415.9,286046998.6,N
1564078435.7,286046999.2,N
1564078455.5,286046999.5,N
1564078475.4,286046999.2,N
1564078495.6,286047001.2,N
1564078515.4,286047000.9,N
1564078535.3,286047000.6,N
1564078555.1,286046999.8,N
1564078575.8,286046999.8,N
1564078595.7,286047001.9,N
1564078615.5,286047002.1,N
1564078635.4,286047002.1,N
1564078655.2,286046999.7,N
1564078675.0,286047001.5,N
1564078675.9,286047001.5,N
1564078695.8,286047001.7,N
1564078715.6,286047003.8,N
1564078735.4,286047004.3,N
1564078755.3,286047004.3,N
1564078775.1,286047002.1,N
1564078795.9,286047002.4,N
1564078815.7,286047000.3,N
1564078835.5,286047000.2,N
1564078855.4,286047000.2,N
1564078875.2,286047000.7,N
1564078895.0,286047000.7,N
1564078896.0,286047000.7,N
1564078915.8,286047000.9,N
1564078935.6,286046999.1,N
1564078955.5,286046999.5,N
1564078975.3,286046996.6,N
1564078995.1,286046998.9,N
1564079015.9,286046998.7,N
1564079035.7,286046998.8,N
1564079055.6,286046999.1,N
1564079075.4,286046998.7,N
1564079095.2,286046999.1,N
1564079115.1,286046996.9,N
1564079116.0,286046996.9,N
1564079135.8,286046996.9,N
1564079155.7,286046997.0,N
1564079175.5,286046998.0,N
1564079195.3,286046997.9,N
1564079215.2,286046997.9,N
1564079235.0,286046997.9,N
1564079235.9,286046997.9,N
1564079255.7,286046997.6,N
1564079275.6,286046995.6,N
1564079295.4,286046995.4,N
1564079315.3,286046995.1,N
1564079335.1,286046995.0,N
1564079336.0,286046995.0,N
1564079355.8,286046997.6,N
1564079375.7,286046997.1,N
1564079395.5,286046996.6,N
1564079415.3,286046998.0,N
1564079435.2,286046997.7,N
1564079455.0,286046998.0,N
1564079455.9,286046998.0,N
1564079475.8,286046995.4,Y
1564079495.6,286046999.2,P
1564079515.5,286046999.6,N
1564079535.3,286046999.6,N
1564079555.1,286046999.5,N
1564079575.9,286046999.4,N
1564079595.7,286046999.2,N
1564079615.5,286046999.0,N
1564079635.4,286046999.1,N
1564079655.2,286046998.3,N
1564079675.1,286046998.3,N
1564079676.0,286046998.3,N
1564079695.8,286047001.0,N
1564079715.6,286047001.1,N
1564079735.5,286046999.5,N
1564079755.3,286046999.6,N
1564079775.2,286046999.5,N
1564079795.9,286046999.2,N
1564079815.7,286046998.7,N
1564079835.6,286046998.8,N
1564079855.4,286046996.6,Y
1564079875.2,286046999.5,P
1564079895.1,286046999.1,P
1564079896.0,286046999.1,P
1564079915.8,286046997.0,Y
1564079935.7,286046997.1,P
1564079955.5,286046998.4,N
1564079975.3,286047001.2,N
1564079995.2,286046998.3,N
1564080015.0,286046999.1,N
1564080015.9,286046999.1,N
1564080035.8,286046999.6,N
1564080055.6,286046999.5,N
1564080075.4,286046998.4,N
1564080095.3,286047001.1,N
1564080115.1,286047002.2,N
1564080135.8,286046999.9,N
1564080155.7,286047002.0,N
1564080175.5,286047000.1,N
1564080195.4,286046999.7,N
1564080215.2,286047002.8,N
1564080235.0,286047000.5,N
1564080235.9,286047000.5,N
1564080255.8,286046999.9,N
1564080275.6,286046999.9,N
1564080295.5,286046998.4,N
1564080315.3,286046999.0,N
1564080335.1,286046998.8,N
1564080355.9,286046999.0,N
1564080375.7,286047002.0,N
1564080395.6,286047000.3,N
1564080415.4,286047000.0,N
1564080435.2,286046998.2,N
1564080455.1,286047000.4,N
1564080456.0,286047000.4,N
1564080475.8,286046998.7,N
1564080495.6,286047000.7,N
1564080515.5,286047000.2,N
1564080535.3,286046998.2,N
1564080555.2,286046998.1,N
1564080575.0,286046999.2,N
1564080575.9,286046999.2,N
1564080595.7,286046999.3,N
1564080615.6,286046998.7,N
1564080635.4,286047002.8,N
1564080655.3,286047002.5,N
1564080675.1,286047002.0,N
1564080676.0,286047002.0,N
1564080695.8,286047000.6,N
1564080715.7,286047001.2,N
1564080735.5,286047000.4,N
1564080755.4,286046999.3,N
1564080775.2,286046999.0,N
1564080795.0,286046999.0,N
1564080795.9,286046999.0,N
1564080815.8,286047001.2,N
1564080835.6,286046999.8,N
1564080855.5,286047000.6,N
1564080875.3,286047001.2,N
1564080895.1,286046998.8,N
1564080915.9,286047000.4,N
1564080935.7,286047000.4,N
1564080955.5,286047001.1,N
1564080975.4,286046998.1,N
1564080995.2,286047000.4,N
1564081015.1,286047002.5,N
1564081016.0,286047002.5,N
1564081035.8,286047001.9,N
1564081055.6,286047002.3,N
1564081075.5,286047002.5,N
1564081095.3,286047002.5,N
1564081115.2,286047002.8,N
1564081135.9,286047002.3,N
1564081155.7,286047000.1,N
1564081175.6,286047002.0,N
1564081195.4,286047002.4,N
